Location: Lecco
(45.8566°N, 9.3977°E)
Time: 08:42:41
(UTC+02:00)

Altair - Pass Details

Date: 22 August 2020
Orbit: 1501 x 1682 km, 47.2° (Epoch: 25 September)

Event Time Altitude Azimuth Distance (km) Brightness Sun altitude
Rises 23:59:11 0° 214° (SSW) 4,894 - -29.2°
Reaches altitude 10° 00:02:33 10° 208° (SSW) 3,891 - -29.5°
Maximum altitude 00:11:42 44° 140° (SE) 2,128 - -30.1°
Exits shadow 00:14:52 34° 101° (E) 2,396 8.2 -30.3°
Drops below altitude 10° 00:20:33 10° 73° (ENE) 3,775 9.5 -30.6°
Sets 00:23:45 0° 67° (ENE) 4,736 10.1 -30.8°
